Weather History for Hamilton, OH

Change the Weather History Date:

Monday, September 17, 2012

  Actual Average (KCVG) Record (KCVG)
Temperature  
Mean Temperature 64 °F 67 °F  
Max Temperature 75 °F 78 °F 94 °F (1927)
Min Temperature 53 °F 57 °F 41 °F (2000)
Degree Days  
Heating Degree Days 1 2  
Month to date heating degree days 13  
Since 1 July heating degree days 13  
Cooling Degree Days 0 4  
Month to date cooling degree days 102  
Year to date cooling degree days 1070  
Growing Degree Days 14 (Base 50)    
Moisture  
Dew Point 61 °F    
Average Humidity 84    
Maximum Humidity 96    
Minimum Humidity 64    
Precipitation  
Precipitation 0.01 in 0.08 in 1.49 in (1958)
Month to date precipitation 1.49  
Year to date precipitation 31.28  
Snow  
Snow 0.00 in 0.00 in - ()
Month to date snowfall 0.0  
Since 1 July snowfall 0.0  
Since 1 September snowfall 0.0  
Snow Depth -    
Sea Level Pressure  
Sea Level Pressure 29.91 in    
Wind  
Wind Speed 1 mph (South)    
Max Wind Speed 6 mph    
Max Gust Speed -    
Visibility 10 miles    
Events Rain    
T = Trace of Precipitation, MM = Missing Value Source: NWS Daily Summary

Daily Weather History Graph

Daily Weather History Graph

Search for Another Location

Airport:

Trip Planner

Search our weather history database for the weather conditions in past years. The results will help you decide how hot, cold, wet, or windy it might be!

Date:

Astronomy

Sep. 17, 2012 Rise Set
Actual Time 7:21 AM EDT 7:42 PM EDT
Civil Twilight 6:54 AM EDT 8:09 PM EDT
Nautical Twilight 6:23 AM EDT 8:40 PM EDT
Astronomical Twilight 5:50 AM EDT 9:12 PM EDT
Moon 9:08 AM EDT (9/17) 8:25 PM EDT (9/17)
Length of Visible Light 13h 14m
Length of Day
12h 20m
Waxing Crescent, 3% of the Moon is Illuminated
Sep 17
Waxing Crescent
Sep 22
First Quarter
Sep 29
Full
Oct 8
Last Quarter
Oct 15
New

Hourly Weather History & Observations

Time (EDT) Temp. Dew Point Humidity Pressure Visibility Wind Dir Wind Speed Gust Speed Precip Events Conditions
12:53 AM 55.9 °F 53.1 °F 90% 30.04 in 10.0 mi Calm Calm - N/A   Mostly Cloudy
1:53 AM 54.0 °F 52.0 °F 93% 30.04 in 10.0 mi Calm Calm - N/A   Partly Cloudy
2:53 AM 55.0 °F 53.1 °F 93% 30.03 in 10.0 mi Calm Calm - N/A   Mostly Cloudy
3:53 AM 55.0 °F 53.1 °F 93% 30.02 in 10.0 mi Calm Calm - N/A   Mostly Cloudy
4:53 AM 53.1 °F 52.0 °F 96% 30.01 in 10.0 mi Calm Calm - N/A   Partly Cloudy
5:53 AM 55.9 °F 54.0 °F 93% 30.00 in 10.0 mi Calm Calm - N/A   Overcast
6:53 AM 55.9 °F 54.0 °F 93% 30.00 in 10.0 mi Calm Calm - 0.01 in   Overcast
7:53 AM 57.9 °F 55.9 °F 93% 30.00 in 10.0 mi Calm Calm - N/A   Overcast
8:53 AM 62.1 °F 57.9 °F 86% 30.00 in 10.0 mi Calm Calm - N/A   Clear
10:53 AM 70.0 °F 61.0 °F 73% 29.99 in 10.0 mi East 3.5 mph - N/A   Clear
11:53 AM 73.0 °F 62.1 °F 68% 29.97 in 10.0 mi South 4.6 mph - N/A   Partly Cloudy
12:53 PM 73.9 °F 62.1 °F 66% 29.95 in 10.0 mi Calm Calm - N/A   Scattered Clouds
1:53 PM 75.9 °F 63.0 °F 64% 29.94 in 10.0 mi Variable 5.8 mph - N/A   Mostly Cloudy
2:53 PM 73.9 °F 63.0 °F 68% 29.91 in 10.0 mi Calm Calm - N/A   Overcast
3:53 PM 73.9 °F 62.1 °F 66% 29.90 in 10.0 mi Variable 4.6 mph - N/A   Mostly Cloudy
4:53 PM 71.1 °F 64.0 °F 78% 29.88 in 7.0 mi Variable 5.8 mph - 0.00 in Rain Light Rain
5:41 PM 69.8 °F 64.4 °F 83% 29.87 in 10.0 mi South 5.8 mph - 0.00 in   Overcast
5:53 PM 70.0 °F 64.9 °F 84% 29.86 in 10.0 mi SSW 5.8 mph - 0.00 in   Overcast
6:53 PM 70.0 °F 64.9 °F 84% 29.85 in 10.0 mi South 5.8 mph - N/A   Overcast
7:42 PM 69.8 °F 64.4 °F 83% 29.84 in 10.0 mi South 3.5 mph - N/A   Overcast
7:53 PM 69.1 °F 64.9 °F 87% 29.84 in 10.0 mi Calm Calm - N/A   Overcast
8:08 PM 69.8 °F 64.4 °F 83% 29.83 in 10.0 mi Calm Calm - N/A   Overcast
8:18 PM 69.8 °F 64.4 °F 83% 29.83 in 9.0 mi Calm Calm - N/A   Overcast
8:53 PM 68.0 °F 64.9 °F 90% 29.83 in 9.0 mi Calm Calm - N/A   Mostly Cloudy
9:00 PM 68.0 °F 64.4 °F 88% 29.83 in 9.0 mi Calm Calm - N/A   Mostly Cloudy
9:53 PM 66.9 °F 64.9 °F 93% 29.82 in 8.0 mi Calm Calm - N/A   Overcast
10:12 PM 66.2 °F 64.4 °F 94% 29.82 in 9.0 mi Calm Calm - N/A   Overcast
10:48 PM 68.0 °F 64.4 °F 88% 29.81 in 9.0 mi Calm Calm - N/A   Overcast
10:53 PM 68.0 °F 64.9 °F 90% 29.80 in 9.0 mi Calm Calm - N/A   Overcast
11:53 PM 68.0 °F 64.9 °F 90% 29.79 in 10.0 mi Calm Calm - N/A   Overcast